Location: ???????????
(54.5822°N, 39.1075°E)
Time: 14:00:53
(UTC+00:00)

GEOS 3 Rocket - Pass Details

Date: 19 May 2025
Orbit: 782 x 832 km, 115.0° (Epoch: 19 June)

Event Time Altitude Azimuth Distance (km) Brightness Sun altitude
Exits shadow 21:40:51 - 133° (SE) 2,490 5.8 -15.3°
Reaches altitude 10° 21:41:12 10° 133° (SE) 2,345 5.7 -15.3°
Maximum altitude 21:46:18 86° 222° (SW) 802 3.5 -15.2°
Drops below altitude 10° 21:51:29 10° 313° (NW) 2,383 6.5 -15.1°
Sets 21:53:48 0° 314° (NW) 3,324 7.3 -15.1°
